Weather History for HEGN - November, 2012

Change the Weather History Date:

Tuesday, November 20, 2012

  Actual Average Record
Temperature  
Mean Temperature 72 °F -  
Max Temperature 81 °F 73 °F 86 °F (2010)
Min Temperature 63 °F 57 °F 53 °F (2001)
Cooling Degree Days 7    
Growing Degree Days 22 (Base 50)    
Moisture  
Dew Point 52 °F    
Average Humidity 50    
Maximum Humidity 68    
Minimum Humidity 31    
Precipitation  
Precipitation 0.00 in - - ()
Sea Level Pressure  
Sea Level Pressure 29.98 in    
Wind  
Wind Speed 7 mph ()    
Max Wind Speed 13 mph    
Max Gust Speed -    
Visibility 6.0 miles    
Events      
Averages and records for this station are not official NWS values.
T = Trace of Precipitation, MM = Missing Value Source: Averaged Metar Reports

Daily Weather History Graph

Daily Weather History Graph

Search for Another Location

Airport or City:

Trip Planner

Search our weather history database for the weather conditions in past years. The results will help you decide how hot, cold, wet, or windy it might be!

Date:

Astronomy

Nov. 20, 2012 Rise Set
Actual Time 6:08 AM EET 4:51 PM EET
Civil Twilight 5:44 AM EET 5:16 PM EET
Nautical Twilight 5:15 AM EET 5:44 PM EET
Astronomical Twilight 4:47 AM EET 6:12 PM EET
Moon 11:49 AM EET (11/20) 11:42 PM EET (11/20)
Length of Visible Light 11h 32m
Length of Day
10h 42m
Waxing Crescent, 48% of the Moon is Illuminated
Nov 20
Waxing Crescent
Nov 20
First Quarter
Nov 28
Full
Dec 6
Last Quarter
Dec 13
New

Hourly Weather History & Observations

Time (EET) Temp. Heat Index Dew Point Humidity Pressure Visibility Wind Dir Wind Speed Gust Speed Precip Events Conditions
12:00 AM 68.0 °F - 51.8 °F 56% 30.01 in - WNW 10.4 mph - N/A   Clear
1:00 AM 66.2 °F - 48.2 °F 52% 29.98 in - WNW 10.4 mph - N/A   Clear
2:00 AM 67 °F - 53 °F 52% 29.99 in 6 mi WNW 12.7 mph - -  
2:00 AM 68.0 °F - 53.6 °F 60% 29.98 in - WNW 12.7 mph - N/A   Clear
3:00 AM 66.2 °F - 55.4 °F 68% 29.98 in - WNW 11.5 mph - N/A   Clear
4:00 AM 64.4 °F - 51.8 °F 64% 29.98 in - NW 6.9 mph - N/A   Clear
5:00 AM 64.4 °F - 50.0 °F 59% 29.98 in - NW 6.9 mph - N/A   Clear
6:00 AM 64.4 °F - 50.0 °F 59% 29.98 in - NW 6.9 mph - N/A   Clear
7:00 AM 57.2 °F - 39.2 °F 51% 30.01 in - NW 6.9 mph - N/A   Clear
8:00 AM 69 °F - 49 °F 38% 30.04 in 6 mi NW 8.1 mph - -  
8:00 AM 68.0 °F - 48.2 °F 49% 30.04 in - NW 8.1 mph - N/A   Clear
9:00 AM 75.2 °F - 53.6 °F 47% 30.01 in - NNW 9.2 mph - N/A   Clear
10:00 AM 77.0 °F - 55.4 °F 47% 30.01 in - NNW 8.1 mph - N/A   Clear
11:00 AM 78.8 °F - 55.4 °F 44% 29.98 in - NW 6.9 mph - N/A   Clear
12:00 PM 78.8 °F - 57.2 °F 47% 29.98 in - Variable 3.5 mph - N/A   Clear
1:00 PM 80.6 °F 80.5 °F 55.4 °F 42% 29.95 in - North 6.9 mph - N/A   Clear
2:00 PM 81 °F - 56 °F 31% 29.95 in 6 mi NNE 5.8 mph - -  
2:00 PM 80.6 °F 80.5 °F 55.4 °F 42% 29.95 in - NNE 5.8 mph - N/A   Clear
3:00 PM 80.6 °F - 50.0 °F 34% 29.95 in - North 6.9 mph - N/A   Clear
4:00 PM 78.8 °F - 57.2 °F 47% 29.92 in - NNE 3.5 mph - N/A   Clear
5:00 PM 78.8 °F - 57.2 °F 47% 29.95 in - Calm Calm - N/A   Clear
6:00 PM 77.0 °F - 59.0 °F 54% 29.95 in - Calm Calm - N/A   Clear
7:00 PM 73.4 °F - 57.2 °F 57% 29.95 in - NNE 2.3 mph - N/A   Clear
8:00 PM 71 °F - 52 °F 41% 29.98 in 6 mi West 3.5 mph - -  
8:00 PM 69.8 °F - 51.8 °F 53% 29.98 in - West 3.5 mph - N/A   Clear
9:00 PM 68.0 °F - 48.2 °F 49% 29.98 in - Calm Calm - N/A   Clear
10:00 PM 68.0 °F - 48.2 °F 49% 29.98 in - Calm Calm - N/A   Clear
11:00 PM 66.2 °F - 46.4 °F 49% 29.98 in - WNW 3.5 mph - N/A   Clear